McGregor, MN

11:15 AM CST on February 20, 2017 (GMT -0600)
McGregor

Weather History for KHZX - October, 2013

Change the Weather History Date:

Tuesday, October 8, 2013

  Actual Average (KAIT) Record (KAIT)
Temperature  
Mean Temperature 58 °F -  
Max Temperature 73 °F 58 °F 80 °F (2010)
Min Temperature 42 °F 36 °F 17 °F (2000)
Degree Days  
Heating Degree Days 8    
Growing Degree Days 8 (Base 50)    
Moisture  
Dew Point 43 °F    
Average Humidity 59    
Maximum Humidity 87    
Minimum Humidity 36    
Precipitation  
Precipitation 0.00 in - - ()
Sea Level Pressure  
Sea Level Pressure 29.83 in    
Wind  
Wind Speed 10 mph (SSE)    
Max Wind Speed 22 mph    
Max Gust Speed 30 mph    
Visibility 10 miles    
Events      
Averages and records for this station are not official NWS values.
T = Trace of Precipitation, MM = Missing Value Source: NWS Daily Summary

Daily Weather History Graph

Daily Weather History Graph

Search for Another Location

Airport or City:

Trip Planner

Search our weather history database for the weather conditions in past years. The results will help you decide how hot, cold, wet, or windy it might be!

Date:

Astronomy

Oct. 08, 2013 Rise Set
Actual Time 7:21 AM CDT 6:38 PM CDT
Civil Twilight 6:51 AM CDT 7:09 PM CDT
Nautical Twilight 6:16 AM CDT 7:44 PM CDT
Astronomical Twilight 5:41 AM CDT 8:19 PM CDT
Moon 11:30 AM CDT (10/8) 9:02 PM CDT (10/8)
Length of Visible Light 12h 17m
Length of Day
11h 17m
Waxing Crescent, 16% of the Moon is Illuminated
Oct 8
Waxing Crescent
Oct 11
First Quarter
Oct 18
Full
Oct 26
Last Quarter
Nov 3
New

Hourly Weather History & Observations

Time (CDT) Temp. Windchill Dew Point Humidity Pressure Visibility Wind Dir Wind Speed Gust Speed Precip Events Conditions
12:11 AM 42.8 °F 41.1 °F 39.2 °F 87% 29.94 in 10.0 mi South 3.5 mph - N/A   Clear
12:32 AM 42.8 °F 40.1 °F 39.2 °F 87% 29.94 in 10.0 mi South 4.6 mph - N/A   Clear
12:52 AM 44.6 °F 40.7 °F 37.4 °F 76% 29.94 in 10.0 mi SSE 6.9 mph - N/A   Clear
1:12 AM 44.6 °F 40.7 °F 39.2 °F 81% 29.93 in 10.0 mi SSE 6.9 mph - N/A   Clear
1:32 AM 44.6 °F 40.7 °F 39.2 °F 81% 29.93 in 10.0 mi SSE 6.9 mph - N/A   Clear
1:52 AM 44.6 °F 40.2 °F 39.2 °F 81% 29.93 in 10.0 mi SSE 8.1 mph - N/A   Clear
2:12 AM 44.6 °F 40.7 °F 39.2 °F 81% 29.93 in 10.0 mi SSE 6.9 mph - N/A   Clear
2:32 AM 44.6 °F 40.7 °F 39.2 °F 81% 29.92 in 10.0 mi SSE 6.9 mph - N/A   Clear
2:53 AM 44.6 °F 40.7 °F 39.2 °F 81% 29.92 in 10.0 mi SSE 6.9 mph - N/A   Clear
3:12 AM 44.6 °F 40.7 °F 39.2 °F 81% 29.92 in 10.0 mi SSE 6.9 mph - N/A   Clear
3:32 AM 44.6 °F 41.4 °F 39.2 °F 81% 29.91 in 10.0 mi SSE 5.8 mph - N/A   Clear
3:52 AM 44.6 °F 42.2 °F 39.2 °F 81% 29.91 in 10.0 mi South 4.6 mph - N/A   Clear
4:12 AM 42.8 °F 40.1 °F 37.4 °F 81% 29.91 in 10.0 mi SSE 4.6 mph - N/A   Clear
4:33 AM 44.6 °F 42.2 °F 39.2 °F 81% 29.90 in 10.0 mi SSE 4.6 mph - N/A   Clear
4:53 AM 44.6 °F 40.7 °F 39.2 °F 81% 29.89 in 10.0 mi SSE 6.9 mph - N/A   Clear
5:12 AM 46.4 °F 42.9 °F 41.0 °F 81% 29.89 in 10.0 mi SSE 6.9 mph - N/A   Clear
5:33 AM 46.4 °F 42.9 °F 41.0 °F 81% 29.89 in 10.0 mi SSE 6.9 mph - N/A   Clear
5:51 AM 48.2 °F - 41.0 °F 76% 29.89 in 10.0 mi SSE 6.9 mph - N/A   Clear
6:12 AM 46.4 °F 42.9 °F 41.0 °F 81% 29.88 in 10.0 mi SSE 6.9 mph - N/A   Clear
6:32 AM 46.4 °F 42.4 °F 41.0 °F 81% 29.87 in 10.0 mi SSE 8.1 mph - N/A   Clear
6:50 AM 46.4 °F 41.9 °F 41.0 °F 81% 29.87 in 10.0 mi SSE 9.2 mph - N/A   Clear
7:12 AM 46.4 °F 41.9 °F 41.0 °F 81% 29.86 in 10.0 mi SSE 9.2 mph - N/A   Clear
7:32 AM 46.4 °F 41.5 °F 41.0 °F 81% 29.86 in 10.0 mi SSE 10.4 mph - N/A   Clear
7:51 AM 48.2 °F - 42.8 °F 82% 29.85 in 10.0 mi SSE 10.4 mph - N/A   Clear
8:12 AM 50.0 °F - 42.8 °F 76% 29.85 in 10.0 mi SSE 10.4 mph - N/A   Clear
8:33 AM 50.0 °F - 42.8 °F 76% 29.84 in 10.0 mi SSE 11.5 mph 16.1 mph N/A   Clear
8:47 AM 51.8 °F - 42.8 °F 71% 29.84 in 10.0 mi SSE 12.7 mph 19.6 mph N/A   Clear
9:11 AM 53.6 °F - 42.8 °F 67% 29.82 in 10.0 mi SSE 13.8 mph - N/A   Clear
9:30 AM 55.4 °F - 42.8 °F 63% 29.82 in 10.0 mi SSE 16.1 mph 21.9 mph N/A   Clear
9:52 AM 57.2 °F - 44.6 °F 63% 29.81 in 10.0 mi SSE 13.8 mph 18.4 mph N/A   Clear
10:12 AM 59.0 °F - 44.6 °F 59% 29.80 in 10.0 mi SSE 16.1 mph - N/A   Clear
10:32 AM 60.8 °F - 44.6 °F 55% 29.80 in 10.0 mi SSE 11.5 mph 18.4 mph N/A   Clear
10:53 AM 62.6 °F - 44.6 °F 52% 29.79 in 10.0 mi SSE 13.8 mph 23.0 mph N/A   Clear
11:12 AM 64.4 °F - 44.6 °F 49% 29.79 in 10.0 mi South 15.0 mph 21.9 mph N/A   Clear
11:31 AM 64.4 °F - 46.4 °F 52% 29.79 in 10.0 mi South 16.1 mph 20.7 mph N/A   Clear
11:53 AM 66.2 °F - 46.4 °F 49% 29.78 in 10.0 mi South 9.2 mph 17.3 mph N/A   Clear
12:12 PM 69.8 °F - 44.6 °F 40% 29.78 in 10.0 mi South 19.6 mph 26.5 mph N/A   Clear
12:33 PM 69.8 °F - 44.6 °F 40% 29.77 in 10.0 mi South 21.9 mph 29.9 mph N/A   Clear
12:52 PM 71.6 °F - 44.6 °F 38% 29.76 in 10.0 mi South 20.7 mph 27.6 mph N/A   Clear
1:09 PM 71.6 °F - 44.6 °F 38% 29.75 in 10.0 mi South 18.4 mph 27.6 mph N/A   Clear
1:32 PM 71.6 °F - 44.6 °F 38% 29.75 in 10.0 mi South 17.3 mph 26.5 mph N/A   Clear
1:50 PM 71.6 °F - 44.6 °F 38% 29.75 in 10.0 mi South 20.7 mph 27.6 mph N/A   Clear
2:12 PM 71.6 °F - 44.6 °F 38% 29.74 in 10.0 mi South 19.6 mph 24.2 mph N/A   Clear
2:32 PM 71.6 °F - 44.6 °F 38% 29.74 in 10.0 mi SSE 16.1 mph 27.6 mph N/A   Clear
2:52 PM 71.6 °F - 44.6 °F 38% 29.74 in 10.0 mi South 15.0 mph 24.2 mph N/A   Clear
3:12 PM 71.6 °F - 44.6 °F 38% 29.75 in 10.0 mi South 15.0 mph 23.0 mph N/A   Clear
3:32 PM 73.4 °F - 46.4 °F 38% 29.74 in 10.0 mi South 15.0 mph 26.5 mph N/A   Clear
3:53 PM 73.4 °F - 44.6 °F 36% 29.75 in 10.0 mi South 19.6 mph 25.3 mph N/A   Clear
4:13 PM 73.4 °F - 46.4 °F 38% 29.74 in 10.0 mi South 21.9 mph 29.9 mph N/A   Clear
4:32 PM 71.6 °F - 46.4 °F 41% 29.75 in 10.0 mi South 18.4 mph 26.5 mph N/A   Clear
4:50 PM 71.6 °F - 46.4 °F 41% 29.75 in 10.0 mi South 16.1 mph 24.2 mph N/A   Clear
5:13 PM 71.6 °F - 46.4 °F 41% 29.75 in 10.0 mi South 16.1 mph 25.3 mph N/A   Clear
5:33 PM 71.6 °F - 46.4 °F 41% 29.75 in 10.0 mi South 16.1 mph 24.2 mph N/A   Clear
5:50 PM 71.6 °F - 46.4 °F 41% 29.76 in 10.0 mi South 16.1 mph 23.0 mph N/A   Clear
6:12 PM 69.8 °F - 46.4 °F 43% 29.77 in 10.0 mi South 12.7 mph 24.2 mph N/A   Clear
6:32 PM 68.0 °F - 46.4 °F 46% 29.77 in 10.0 mi South 10.4 mph 20.7 mph N/A   Clear
6:52 PM 68.0 °F - 44.6 °F 43% 29.78 in 10.0 mi South 10.4 mph 17.3 mph N/A   Clear
7:12 PM 66.2 °F - 46.4 °F 49% 29.78 in 10.0 mi South 10.4 mph - N/A   Clear
7:32 PM 64.4 °F - 46.4 °F 52% 29.79 in 10.0 mi South 9.2 mph - N/A   Clear
7:53 PM 64.4 °F - 46.4 °F 52% 29.80 in 10.0 mi South 9.2 mph - N/A   Clear
8:13 PM 64.4 °F - 46.4 °F 52% 29.80 in 10.0 mi South 10.4 mph - N/A   Clear
8:33 PM 64.4 °F - 44.6 °F 49% 29.80 in 10.0 mi South 9.2 mph - N/A   Clear
8:53 PM 64.4 °F - 44.6 °F 49% 29.80 in 10.0 mi South 10.4 mph - N/A   Clear
9:10 PM 62.6 °F - 44.6 °F 52% 29.81 in 10.0 mi South 10.4 mph - N/A   Clear
9:33 PM 62.6 °F - 44.6 °F 52% 29.81 in 10.0 mi South 11.5 mph 16.1 mph N/A   Clear
9:52 PM 62.6 °F - 44.6 °F 52% 29.82 in 10.0 mi South 10.4 mph - N/A   Clear
10:12 PM 62.6 °F - 44.6 °F 52% 29.82 in 10.0 mi South 11.5 mph 17.3 mph N/A   Clear
10:33 PM 62.6 °F - 44.6 °F 52% 29.83 in 10.0 mi South 10.4 mph - N/A   Clear
10:53 PM 62.6 °F - 44.6 °F 52% 29.84 in 10.0 mi South 12.7 mph - N/A   Clear
11:10 PM 62.6 °F - 44.6 °F 52% 29.84 in 10.0 mi South 10.4 mph 17.3 mph N/A   Clear
11:32 PM 62.6 °F - 44.6 °F 52% 29.85 in 10.0 mi South 11.5 mph - N/A   Clear
11:52 PM 62.6 °F - 44.6 °F 52% 29.85 in 10.0 mi South 10.4 mph 19.6 mph N/A   Clear